Latest Coastal Weather Observations for Montague Island

IDN60701

Issued at 7:51 am EDT Thursday 14 December 2017 (issued every 10 minutes, with the page automatically refreshed every 10 minutes)

About coastal observations | Map of coastal stations | Coastal observations for NSW | Marine services | Other Formats
Station Details ID: 069017 Name: MONTAGUE ISLAND LIGHTHOUSE Lat: -36.25 Lon: 150.23 Height: 52.0 m
Data from the previous 72 hours. | See also: Recent months at Montague Island
Date/Time
EDT
Temp
°C
Wind Pressure Rain since
9am
mm
Weather Cloud Vis
km
Sea
Height
m
Swell
Dir  Spd
kts
Gust
kts
hPa Trend Height
m
Period
s
Dir
14/07:30am 21.2 N 11 13 1004.7 - 0.0 - - - - - - -
14/07:00am 20.7 N 10 13 1004.8 - 0.0 - - - - - - -
14/06:30am 20.4 N 9 12 1004.8 - 0.0 - - - - - - -
14/06:00am 20.1 N 9 11 1004.7 - 0.0 - - - - - - -
14/05:30am 20.1 N 8 10 1004.8 - 0.0 - - - - - - -
14/05:00am 20.1 N 7 9 1004.9 - 0.0 - - - - - - -
14/04:30am 20.0 N 6 8 1004.7 - 0.0 - - - - - - -
14/04:00am 19.8 N 7 9 1005.0 - 0.0 - - - - - - -
14/03:30am 19.4 N 6 8 1005.0 - 0.0 - - - - - - -
14/03:00am 19.7 N 5 8 1005.5 - 0.0 - - - - - - -
14/02:30am 19.7 NW 5 7 1005.6 - 0.0 - - - - - - -
14/02:00am 20.3 NNW 6 7 1006.0 - 0.0 - - - - - - -
14/01:30am 20.3 N 5 8 1006.4 - 0.0 - - - - - - -
14/01:00am 20.5 N 6 9 1007.2 - 0.0 - - - - - - -
14/12:30am 20.7 NNE 6 8 1007.7 - 0.0 - - - - - - -
14/12:00am 20.7 NNE 7 9 1008.1 - 0.0 - - - - - - -
 
Date/Time
EDT
Temp
°C
Wind Pressure Rain since
9am
mm
Weather Cloud Vis
km
Sea
Height
m
Swell
Dir  Spd
kts
Gust
kts
hPa Trend Height
m
Period
s
Dir
13/11:30pm 20.9 NNE 7 9 1008.6 - 0.0 - - - - - - -
13/11:00pm 21.0 NNE 6 9 1008.8 - 0.0 - - - - - - -
13/10:30pm 21.1 NNE 9 11 1009.0 - 0.0 - - - - - - -
13/10:00pm 21.3 NNE 9 12 1009.1 - 0.0 - - - - - - -
13/09:30pm 21.3 NNE 9 11 1009.1 - 0.0 - - - - - - -
13/09:00pm 21.4 NNE 9 11 1009.3 - 0.0 - - - - - - -
13/08:30pm 21.4 N 9 12 1009.2 - 0.0 - - - - - - -
13/08:00pm 21.5 NNE 10 14 1008.9 - 0.0 - - - - - - -
13/07:30pm 21.5 NNE 10 12 1008.9 - 0.0 - - - - - - -
13/07:00pm 21.7 N 9 11 1008.9 - 0.0 - - - - - - -
13/06:30pm 21.8 N 10 13 1008.7 - 0.0 - - - - - - -
13/06:00pm 22.0 N 9 12 1008.7 - 0.0 - - - - - - -
13/05:30pm 22.3 N 10 13 1008.7 - 0.0 - - - - - - -
13/05:00pm 22.5 N 9 12 1009.0 - 0.0 - - - - - - -
13/04:30pm 22.5 NNE 10 13 1009.1 - 0.0 - - - - - - -
13/04:00pm 22.8 NNE 10 13 1009.3 - 0.0 - - - - - - -
13/03:30pm 22.7 NNE 11 13 1009.4 - 0.0 - - - - - - -
13/03:00pm 22.6 NNE 10 13 1009.8 - 0.0 - - - - - - -
13/02:30pm 22.7 NNE 11 14 1009.9 - 0.0 - - - - - - -
13/02:00pm 22.4 NNE 11 14 1010.2 - 0.0 - - - - - - -
13/01:30pm 22.8 NNE 10 13 1010.6 - 0.0 - - - - - - -
13/01:00pm 22.8 NNE 10 12 1011.2 - 0.0 - - - - - - -
13/12:30pm 22.9 NNE 9 11 1011.6 - 0.0 - - - - - - -
13/12:00pm 22.8 NNE 8 10 1012.0 - 0.0 - - - - - - -
13/11:30am 22.4 NNE 8 10 1012.3 - 0.0 - - - - - - -
13/11:00am 22.4 N 8 10 1012.7 - 0.0 - - - - - - -
13/10:30am 22.0 NNE 7 9 1013.1 - 0.0 - - - - - - -
13/10:00am 21.3 N 6 8 1013.4 - 0.0 - - - - - - -
13/09:30am 21.6 NNW 6 8 1013.5 - 0.0 - - - - - - -
13/09:00am 21.2 NNW 6 8 1013.7 - 0.0 - - - - - - -
13/08:30am 21.4 NNW 4 7 1013.9 - 0.0 - - - - - - -
13/08:00am 20.9 NNE 7 9 1013.7 - 0.0 - - - - - - -
13/07:30am 21.0 N 6 8 1013.7 - 0.0 - - - - - - -
13/07:00am 20.8 N 5 7 1013.5 - 0.0 - - - - - - -
13/06:30am 20.7 NNE 5 7 1013.2 - 0.0 - - - - - - -
13/06:00am 20.6 NNE 6 7 1013.1 - 0.0 - - - - - - -
13/05:30am 20.6 NNE 4 6 1012.9 - 0.0 - - - - - - -
13/05:00am 20.7 N 4 6 1013.0 - 0.0 - - - - - - -
13/04:30am 20.8 NNE 3 5 1013.2 - 0.0 - - - - - - -
13/04:00am 20.8 NE 5 7 1013.0 - 0.0 - - - - - - -
13/03:30am 20.9 NNE 4 6 1013.3 - 0.0 - - - - - - -
13/03:00am 21.0 NNE 6 7 1013.4 - 0.0 - - - - - - -
13/02:30am 21.0 NNE 7 8 1013.7 - 0.0 - - - - - - -
13/02:00am 21.0 NNE 7 9 1014.0 - 0.0 - - - - - - -
13/01:30am 20.9 NNE 7 9 1014.3 - 0.0 - - - - - - -
13/01:00am 20.8 NNE 7 8 1014.7 - 0.0 - - - - - - -
13/12:30am 20.9 NNE 7 9 1015.0 - 0.0 - - - - - - -
13/12:00am 20.9 NNE 7 10 1015.5 - 0.0 - - - - - - -
 
Date/Time
EDT
Temp
°C
Wind Pressure Rain since
9am
mm
Weather Cloud Vis
km
Sea
Height
m
Swell
Dir  Spd
kts
Gust
kts
hPa Trend Height
m
Period
s
Dir
12/11:30pm 21.0 NNE 7 8 1015.8 - 0.0 - - - - - - -
12/11:00pm 21.0 NNE 7 8 1016.1 - 0.0 - - - - - - -
12/10:30pm 21.2 NNE 7 8 1016.3 - 0.0 - - - - - - -
12/10:00pm 21.3 NNE 6 8 1016.3 - 0.0 - - - - - - -
12/09:30pm 21.4 NNE 6 8 1016.3 - 0.0 - - - - - - -
12/09:00pm 21.5 NE 5 6 1016.3 - 0.0 - - - - - - -
12/08:30pm 21.6 NE 4 6 1016.2 - 0.0 - - - - - - -
12/08:00pm 21.6 NNE 4 5 1016.2 - 0.0 - - - - - - -
12/07:30pm 21.8 NNE 4 5 1015.9 - 0.0 - - - - - - -
12/07:00pm 21.8 NNE 5 6 1015.7 - 0.0 - - - - - - -
12/06:30pm 21.9 NNE 5 6 1015.6 - 0.0 - - - - - - -
12/06:00pm 21.9 NNE 5 6 1015.4 - 0.0 - - - - - - -
12/05:30pm 22.4 NNE 4 6 1015.3 - 0.0 - - - - - - -
12/05:00pm 22.5 NE 5 7 1015.2 - 0.0 - - - - - - -
12/04:30pm 22.1 NE 5 7 1015.4 - 0.0 - - - - - - -
12/04:00pm 22.4 NE 6 8 1015.4 - 0.0 - - - - - - -
12/03:30pm 22.9 NE 5 8 1015.7 - 0.0 - - - - - - -
12/03:00pm 22.5 NE 5 7 1015.8 - 0.0 - - - - - - -
12/02:30pm 22.4 ENE 4 6 1016.0 - 0.0 - - - - - - -
12/02:00pm 22.7 E 3 5 1016.2 - 0.0 - - - - - - -
12/01:30pm 22.4 ESE 4 6 1016.3 - 0.0 - - - - - - -
12/01:00pm 22.3 SE 4 6 1016.5 - 0.0 - - - - - - -
12/12:30pm 23.1 S 6 8 1016.9 - 0.0 - - - - - - -
12/12:00pm 22.5 SSW 5 7 1017.1 - 0.0 - - - - - - -
12/11:30am 22.5 SSW 6 8 1017.5 - 0.0 - - - - - - -
12/11:00am 22.0 SSW 6 8 1017.8 - 0.0 - - - - - - -
12/10:30am 21.5 SSW 6 8 1018.0 - 0.0 - - - - - - -
12/10:00am 21.0 SSW 6 8 1018.3 - 0.0 - - - - - - -
12/09:30am 20.1 SW 4 7 1018.4 - 0.0 - - - - - - -
12/09:00am 19.5 SSW 4 5 1018.6 - 0.2 Recent precip. - - - - - -
12/08:30am 18.7 SW 4 4 1018.8 - 0.2 - - - - - - -
12/08:00am 18.6 SSW 3 4 1018.8 - 0.0 - - - - - - -
12/07:30am 18.4 SSW 3 4 1018.5 - 0.0 - - - - - - -
12/07:00am 18.3 SE 5 7 1018.1 - 0.0 - - - - - - -
12/06:30am 18.7 S 4 6 1018.0 - 0.0 - - - - - - -
12/06:00am 18.4 SSW 5 7 1018.0 - 0.0 - - - - - - -
12/05:30am 18.3 SW 5 7 1017.8 - 0.0 - - - - - - -
12/05:00am 18.2 SSW 6 8 1017.7 - 0.0 - - - - - - -
12/04:30am 18.1 SW 6 8 1017.5 - 0.0 - - - - - - -
12/04:00am 18.1 SW 5 7 1017.6 - 0.0 - - - - - - -
12/03:30am 18.1 SW 6 8 1017.9 - 0.0 - - - - - - -
12/03:00am 18.0 SSW 6 7 1018.0 - 0.0 - - - - - - -
12/02:30am 17.9 SW 6 8 1018.3 - 0.0 - - - - - - -
12/02:00am 18.1 SW 6 8 1018.7 - 0.0 - - - - - - -
12/01:30am 18.1 SW 6 8 1019.0 - 0.0 - - - - - - -
12/01:00am 18.2 SW 6 8 1019.5 - 0.0 - - - - - - -
12/12:30am 18.3 SW 6 8 1019.6 - 0.0 - - - - - - -
12/12:00am 18.3 SW 6 7 1019.8 - 0.0 - - - - - - -
 
Date/Time
EDT
Temp
°C
Wind Pressure Rain since
9am
mm
Weather Cloud Vis
km
Sea
Height
m
Swell
Dir  Spd
kts
Gust
kts
hPa Trend Height
m
Period
s
Dir
11/11:30pm 18.5 SSW 6 8 1020.2 - 0.0 - - - - - - -
11/11:00pm 18.5 S 7 8 1020.2 - 0.0 - - - - - - -
11/10:30pm 18.9 S 5 7 1020.4 - 0.0 - - - - - - -
11/10:00pm 18.7 SSE 6 7 1020.4 - 0.0 - - - - - - -
11/09:30pm 18.7 SSE 6 7 1020.2 - 0.0 - - - - - - -
11/09:00pm 18.6 SSE 6 8 1020.0 - 0.0 - - - - - - -
11/08:30pm 18.7 SSE 7 9 1019.8 - 0.0 - - - - - - -
11/08:00pm 18.7 SSE 8 9 1019.7 - 0.0 - - - - - - -
11/07:30pm 18.7 SSE 8 9 1019.2 - 0.0 - - - - - - -
11/07:00pm 18.8 SSE 8 10 1019.0 - 0.0 - - - - - - -
11/06:30pm 19.3 SE 9 10 1018.6 - 0.0 - - - - - - -
11/06:00pm 19.3 SSE 9 11 1018.4 - 0.0 - - - - - - -
11/05:30pm 19.2 SSE 9 11 1018.2 - 0.0 - - - - - - -
11/05:00pm 19.3 SSE 9 11 1018.1 - 0.0 - - - - - - -
11/04:30pm 19.4 SE 10 12 1018.2 - 0.0 - - - - - - -
11/04:00pm 19.4 SE 10 11 1018.3 - 0.0 - - - - - - -
11/03:30pm 19.5 SSE 10 12 1018.3 - 0.0 - - - - - - -
11/03:00pm 19.8 SSE 10 12 1018.4 - 0.0 - - - - - - -
11/02:30pm 19.6 SSE 10 12 1018.4 - 0.0 - - - - - - -
11/02:00pm 20.2 SE 9 10 1018.5 - 0.0 - - - - - - -
11/01:30pm 19.4 SSE 9 10 1018.7 - 0.0 - - - - - - -
11/01:00pm 19.2 SSE 9 10 1019.1 - 0.0 - - - - - - -
11/12:30pm 19.4 SSE 9 10 1019.5 - 0.0 - - - - - - -
11/12:00pm 19.4 SSE 8 9 1019.8 - 0.0 - - - - - - -
11/11:30am 19.3 SSE 8 10 1020.0 - 0.0 - - - - - - -
11/11:00am 19.4 SSE 9 10 1020.1 - 0.0 - - - - - - -
11/10:30am 19.4 SSE 8 11 1020.2 - 0.0 - - - - - - -
11/10:00am 19.7 SSE 9 10 1020.5 - 0.0 - - - - - - -
11/09:30am 20.5 SE 7 8 1020.5 - 0.0 - - - - - - -
11/09:00am 19.9 SE 7 8 1020.5 - 0.0 - - - - - - -
11/08:30am 19.6 SE 8 9 1020.5 - 0.0 - - - - - - -
11/08:00am 19.7 SE 8 9 1020.3 - 0.0 - - - - - - -

Other Formats:

Comma delimited format used in spreadsheet applications
http://www.bom.gov.au/fwo/IDN60701/IDN60701.94939.axf

JavaScript Object Notation format (JSON) in row-major order
http://www.bom.gov.au/fwo/IDN60701/IDN60701.94939.json